Weather History for KJST - September, 2013

Change the Weather History Date:

Wednesday, September 4, 2013

  Actual Average Record
Temperature  
Mean Temperature 61 °F 64 °F  
Max Temperature 70 °F 72 °F 101 °F (1953)
Min Temperature 52 °F 56 °F 41 °F (1908)
Degree Days  
Heating Degree Days 4 3  
Month to date heating degree days 8 9  
Since 1 July heating degree days 79 51  
Cooling Degree Days 0 2  
Month to date cooling degree days 10 8  
Year to date cooling degree days 356 368  
Growing Degree Days 10 (Base 50)    
Moisture  
Dew Point 52 °F    
Average Humidity 77    
Maximum Humidity 100    
Minimum Humidity 53    
Precipitation  
Precipitation 0.00 in 0.12 in 2.13 in (1988)
Month to date precipitation 1.21 0.45  
Year to date precipitation 26.16 24.74  
Sea Level Pressure  
Sea Level Pressure 30.10 in    
Wind  
Wind Speed 8 mph (West)    
Max Wind Speed 15 mph    
Max Gust Speed 20 mph    
Visibility 9 miles    
Events      
T = Trace of Precipitation, MM = Missing Value Source: NWS Daily Summary

Daily Weather History Graph

Daily Weather History Graph

Search for Another Location

Airport or City:

Trip Planner

Search our weather history database for the weather conditions in past years. The results will help you decide how hot, cold, wet, or windy it might be!

Date:

Astronomy

Sep. 04, 2013 Rise Set
Actual Time 6:45 AM EDT 7:41 PM EDT
Civil Twilight 6:18 AM EDT 8:09 PM EDT
Nautical Twilight 5:45 AM EDT 8:42 PM EDT
Astronomical Twilight 5:10 AM EDT 9:16 PM EDT
Moon 5:56 AM EDT (9/4) 7:00 PM EDT (9/4)
Length of Visible Light 13h 51m
Length of Day
12h 56m
Waning Crescent, 1% of the Moon is Illuminated
Sep 4
Waning Crescent
Sep 5
New
Sep 12
First Quarter
Sep 19
Full
Sep 26
Last Quarter

Hourly Weather History & Observations

Time (EDT) Temp. Dew Point Humidity Pressure Visibility Wind Dir Wind Speed Gust Speed Precip Events Conditions
12:54 AM 54.0 °F 52.0 °F 93% 30.05 in 10.0 mi West 5.8 mph - N/A   Clear
1:54 AM 52.0 °F 51.1 °F 97% 30.06 in 10.0 mi WSW 3.5 mph - N/A   Clear
2:21 AM 51.8 °F 51.8 °F 100% 30.07 in 10.0 mi NW 6.9 mph - N/A   Partly Cloudy
2:39 AM 53.6 °F 53.6 °F 100% 30.07 in 10.0 mi WNW 6.9 mph - N/A   Mostly Cloudy
2:54 AM 54.0 °F 53.1 °F 97% 30.06 in 10.0 mi WNW 5.8 mph - N/A   Overcast
3:54 AM 54.0 °F 53.1 °F 97% 30.07 in 10.0 mi WNW 6.9 mph - N/A   Overcast
4:54 AM 54.0 °F 53.1 °F 97% 30.08 in 8.0 mi WNW 6.9 mph - N/A   Overcast
5:54 AM 53.1 °F 52.0 °F 96% 30.09 in 7.0 mi NW 6.9 mph - N/A   Mostly Cloudy
6:06 AM 51.8 °F 51.8 °F 100% 30.10 in 7.0 mi WNW 5.8 mph - N/A   Scattered Clouds
6:36 AM 51.8 °F 51.8 °F 100% 30.11 in 6.0 mi Calm Calm - N/A   Mostly Cloudy
6:47 AM 51.8 °F 51.8 °F 100% 30.11 in 4.0 mi Calm Calm - N/A   Scattered Clouds
6:54 AM 52.0 °F 51.1 °F 97% 30.12 in 4.0 mi Calm Calm - N/A   Mostly Cloudy
7:09 AM 51.8 °F 51.8 °F 100% 30.11 in 5.0 mi Calm Calm - N/A   Mostly Cloudy
7:54 AM 53.1 °F 52.0 °F 96% 30.12 in 5.0 mi WSW 4.6 mph - N/A   Partly Cloudy
8:54 AM 55.0 °F 53.1 °F 93% 30.13 in 10.0 mi West 4.6 mph - N/A   Clear
9:54 AM 59.0 °F 53.1 °F 81% 30.14 in 10.0 mi West 5.8 mph - N/A   Clear
10:54 AM 62.1 °F 53.1 °F 72% 30.14 in 10.0 mi WSW 10.4 mph - N/A   Partly Cloudy
11:54 AM 63.0 °F 53.1 °F 70% 30.14 in 10.0 mi West 10.4 mph - N/A   Scattered Clouds
12:54 PM 64.9 °F 53.1 °F 65% 30.13 in 10.0 mi Variable 6.9 mph - N/A   Partly Cloudy
1:54 PM 66.0 °F 52.0 °F 60% 30.12 in 10.0 mi West 9.2 mph - N/A   Clear
2:54 PM 68.0 °F 52.0 °F 56% 30.11 in 10.0 mi WNW 10.4 mph - N/A   Clear
3:54 PM 69.1 °F 51.1 °F 53% 30.09 in 10.0 mi West 9.2 mph - N/A   Clear
4:54 PM 69.1 °F 52.0 °F 54% 30.10 in 10.0 mi WNW 11.5 mph - N/A   Clear
5:54 PM 68.0 °F 52.0 °F 56% 30.09 in 10.0 mi West 10.4 mph - N/A   Clear
6:54 PM 66.0 °F 54.0 °F 65% 30.10 in 10.0 mi West 9.2 mph - N/A   Clear
7:54 PM 63.0 °F 54.0 °F 72% 30.09 in 10.0 mi WSW 6.9 mph - N/A   Clear
8:54 PM 62.1 °F 53.1 °F 72% 30.11 in 10.0 mi WSW 8.1 mph - N/A   Clear
9:54 PM 62.1 °F 52.0 °F 70% 30.11 in 10.0 mi WSW 9.2 mph - N/A   Clear
10:54 PM 62.1 °F 52.0 °F 70% 30.11 in 10.0 mi West 9.2 mph - N/A   Clear
11:54 PM 62.1 °F 53.1 °F 72% 30.10 in 10.0 mi West 9.2 mph - N/A   Clear